logo tempoitalia

Diretta Meteo Watonga, Stati Uniti (USA)lunedì 31 agosto ore 01:35

Mappa
Sereno 29 °C Sereno 24 Ore: T.min 26 T.max 39
Ponente Sud Km/h 18.5 Punto di rugiada: 13 °C Umidità: 37% Visibilità: 10 Km
Il sole sorge alle: 07:05 Il sole tramonta alle: 20:02
31 Agosto 2026 01:35 tempo osservato: Sereno Sereno 29 37 1015 vento: Nord S 18.5
31 Agosto 2026 01:15 tempo osservato: Sereno Sereno 30 35 1015 vento: Nord S 24
31 Agosto 2026 00:55 tempo osservato: Sereno Sereno 30 35 1015 vento: Nord S 24
31 Agosto 2026 00:35 tempo osservato: Sereno Sereno 30 35 1014 vento: Nord S 22.2
31 Agosto 2026 00:15 tempo osservato: Sereno Sereno 30 35 1014 vento: Nord S 20.3
30 Agosto 2026 23:55 tempo osservato: Sereno Sereno 30 35 1014 vento: Nord S 20.3
30 Agosto 2026 23:35 tempo osservato: Sereno Sereno 30 35 1014 vento: Nord S/SE 16.7
30 Agosto 2026 23:15 tempo osservato: Sereno Sereno 29 37 1014 vento: Nord S/SE 14.8
30 Agosto 2026 22:55 tempo osservato: Sereno Sereno 30 35 1014 vento: Nord S/SE 14.8
30 Agosto 2026 22:35 tempo osservato: Sereno Sereno 31 33 1014 vento: Nord S/SE 14.8
30 Agosto 2026 22:15 tempo osservato: Sereno Sereno 31 33 1014 vento: Nord S/SE 13
30 Agosto 2026 21:55 tempo osservato: Sereno Sereno 31 33 1014 vento: Nord S/SE 13
30 Agosto 2026 21:35 tempo osservato: Sereno Sereno 32 31 1014 vento: Nord S/SE 11.1
30 Agosto 2026 21:15 tempo osservato: Sereno Sereno 33 29 1013 vento: Nord S/SE 13
30 Agosto 2026 20:55 tempo osservato: Sereno Sereno 33 29 1013 vento: Nord S/SE 11.1
30 Agosto 2026 20:35 tempo osservato: Sereno Sereno 34 28 1013 vento: Nord S/SE 13
30 Agosto 2026 20:15 tempo osservato: Sereno Sereno 35 26 1012 vento: Nord S 16.7
30 Agosto 2026 19:55 tempo osservato: Sereno Sereno 35 26 1012 vento: Nord S 20.3
30 Agosto 2026 19:35 tempo osservato: Sereno Sereno 36 25 1012 vento: Nord S 22.2
30 Agosto 2026 19:15 tempo osservato: Sereno Sereno 37 25 1012 vento: Nord S 18.5
30 Agosto 2026 18:55 tempo osservato: Sereno Sereno 37 25 1012 vento: Nord S 20.3
30 Agosto 2026 18:35 tempo osservato: Sereno Sereno 38 24 1012 vento: Nord S 18.5
30 Agosto 2026 18:15 tempo osservato: Sereno Sereno 38 24 1012 vento: Nord S 24
30 Agosto 2026 17:55 tempo osservato: Sereno Sereno 39 22 1012 vento: Nord S 20.3
30 Agosto 2026 17:35 tempo osservato: Sereno Sereno 39 22 1012 vento: Nord S 25.9
30 Agosto 2026 17:15 tempo osservato: Sereno Sereno 39 22 1012 vento: Nord S 20.3
30 Agosto 2026 16:55 tempo osservato: Sereno Sereno 39 22 1012 vento: Nord S 24
30 Agosto 2026 16:35 tempo osservato: Sereno Sereno 39 22 1012 vento: Nord S 27.8
30 Agosto 2026 16:15 tempo osservato: Sereno Sereno 39 22 1012 vento: Nord S/SO 25.9
30 Agosto 2026 15:55 tempo osservato: Sereno Sereno 39 22 1013 vento: Nord S 20.3
30 Agosto 2026 15:35 tempo osservato: Sereno Sereno 39 22 1013 vento: Nord S 25.9
30 Agosto 2026 15:15 tempo osservato: Nuvoloso Nuvoloso 39 24 1013 vento: Nord S 31.5
30 Agosto 2026 14:55 tempo osservato: Sereno Sereno 39 24 1014 vento: Nord S 33.3
30 Agosto 2026 14:35 tempo osservato: Sereno Sereno 39 24 1014 vento: Nord S 25.9
30 Agosto 2026 14:15 tempo osservato: Sereno Sereno 38 27 1014 vento: Nord S 31.5
30 Agosto 2026 13:55 tempo osservato: Sereno Sereno 38 27 1014 vento: Nord S/SO 31.5
30 Agosto 2026 13:35 tempo osservato: Sereno Sereno 38 27 1014 vento: Nord S 27.8
30 Agosto 2026 13:15 tempo osservato: Sereno Sereno 37 28 1015 vento: Nord S/SO 33.3
30 Agosto 2026 12:55 tempo osservato: Sereno Sereno 38 27 1015 vento: Nord S 35.2
30 Agosto 2026 12:35 tempo osservato: Sereno Sereno 37 28 1015 vento: Nord S/SO 42.6
30 Agosto 2026 12:15 tempo osservato: Sereno Sereno 37 28 1015 vento: Nord S 37
30 Agosto 2026 11:55 tempo osservato: Sereno Sereno 37 28 1016 vento: Nord S/SO 31.5
30 Agosto 2026 11:35 tempo osservato: Sereno Sereno 36 30 1016 vento: Nord S/SO 31.5
30 Agosto 2026 11:15 tempo osservato: Sereno Sereno 35 32 1016 vento: Nord S 31.5
30 Agosto 2026 10:55 tempo osservato: Sereno Sereno 34 34 1016 vento: Nord S/SO 25.9
30 Agosto 2026 10:40 tempo osservato: Sereno Sereno 34 34 1016 vento: Nord S/SO 31.5
30 Agosto 2026 10:15 tempo osservato: Sereno Sereno 33 36 1016 vento: Nord S/SO 31.5
30 Agosto 2026 09:55 tempo osservato: Sereno Sereno 32 38 1016 vento: Nord S 31.5
30 Agosto 2026 09:35 tempo osservato: Sereno Sereno 31 40 1016 vento: Nord S/SO 31.5
30 Agosto 2026 09:15 tempo osservato: Sereno Sereno 30 42 1016 vento: Nord S 25.9
30 Agosto 2026 08:55 tempo osservato: Sereno Sereno 29 45 1016 vento: Nord S 22.2
30 Agosto 2026 08:35 tempo osservato: Sereno Sereno 28 45 1016 vento: Nord S 22.2
30 Agosto 2026 08:15 tempo osservato: Sereno Sereno 26 50 1016 vento: Nord S 20.3
30 Agosto 2026 07:55 tempo osservato: Sereno Sereno 26 50 1016 vento: Nord S 18.5
30 Agosto 2026 07:35 tempo osservato: Sereno Sereno 26 50 1016 vento: Nord S 14.8
30 Agosto 2026 07:15 tempo osservato: Sereno Sereno 26 50 1015 vento: Nord S 18.5
30 Agosto 2026 06:55 tempo osservato: Sereno Sereno 26 50 1015 vento: Nord S 16.7
30 Agosto 2026 06:35 tempo osservato: Sereno Sereno 26 47 1015 vento: Nord S 16.7
30 Agosto 2026 06:15 tempo osservato: Sereno Sereno 26 47 1015 vento: Nord S 16.7
30 Agosto 2026 05:55 tempo osservato: Sereno Sereno 26 47 1015 vento: Nord S 16.7
30 Agosto 2026 05:35 tempo osservato: Sereno Sereno 27 44 1015 vento: Nord S 16.7
30 Agosto 2026 05:15 tempo osservato: Sereno Sereno 27 44 1015 vento: Nord S 16.7
30 Agosto 2026 04:55 tempo osservato: Sereno Sereno 27 44 1015 vento: Nord S 14.8
30 Agosto 2026 04:35 tempo osservato: Sereno Sereno 28 42 1015 vento: Nord S 16.7
30 Agosto 2026 04:15 tempo osservato: Sereno Sereno 28 42 1015 vento: Nord S 16.7
30 Agosto 2026 03:55 tempo osservato: Sereno Sereno 28 42 1015 vento: Nord S 22.2
30 Agosto 2026 03:35 tempo osservato: Sereno Sereno 28 42 1014 vento: Nord S 20.3
30 Agosto 2026 03:15 tempo osservato: Sereno Sereno 29 37 1014 vento: Nord S 20.3
30 Agosto 2026 02:55 tempo osservato: Sereno Sereno 29 37 1015 vento: Nord S 22.2
30 Agosto 2026 02:35 tempo osservato: Sereno Sereno 29 37 1015 vento: Nord S 20.3
30 Agosto 2026 02:15 tempo osservato: Sereno Sereno 29 37 1015 vento: Nord S 22.2
30 Agosto 2026 01:55 tempo osservato: Sereno Sereno 29 37 1015 vento: Nord S 24
30 Agosto 2026 01:35 tempo osservato: Sereno Sereno 30 35 1015 vento: Nord S 24